Track COSMOS 624 now! 10-day predictions COSMOS 624 is classified as:
1 06992U 73104H 21110.95286269 -.00000020 00000-0 -18227-4 0 9991 2 06992 74.0298 183.4462 0086482 211.8971 259.1965 12.61246659179447